When you browse on this site, cookies collect data to enhance your experience and personalize the content and advertising you see.
Visit our Privacy Policy to learn more. By continuing to use the site, you agree to this use of cookies and data.
  • In Hungary
  • List of Countries
  • For 7 days
  • Water Temperature
  • Satellite Maps
  • Weather Map
  • News
  • Weather Widgets
  • user-avatar
    Login

    Hourly Weather Novospassk

    Today, 25 May, Saturday

    Time Temperature Precipitation Wind Pressure Humidity
    00:00 +5°C° 0 mm 1 mps 756 mmHg 68%
    01:00 +4°C° 0 mm 1 mps 756 mmHg 68%
    02:00 +4°C° 0 mm 1 mps 757 mmHg 68%
    03:00 +4°C° 0 mm 1 mps 757 mmHg 68%
    04:00 +4°C° 0 mm 0 mps 757 mmHg 67%
    05:00 +4°C° 0 mm 0 mps 758 mmHg 65%
    06:00 +5°C° 0 mm 0 mps 758 mmHg 63%
    07:00 +7°C° 0 mm 0 mps 758 mmHg 59%
    08:00 +9°C° 0 mm 1 mps 758 mmHg 55%
    09:00 +10°C° 0 mm 1 mps 758 mmHg 50%
    10:00 +11°C° 0 mm 1 mps 758 mmHg 48%
    11:00 +11°C° 0 mm 1 mps 758 mmHg 47%
    12:00 +12°C° 0 mm 1 mps 758 mmHg 46%
    13:00 +12°C° 0 mm 1 mps 758 mmHg 45%
    14:00 +13°C° 0 mm 1 mps 757 mmHg 45%
    15:00 +12°C° 0 mm 0 mps 757 mmHg 46%
    16:00 +12°C° 0 mm 0 mps 756 mmHg 49%
    17:00 +13°C° 0 mm 1 mps 756 mmHg 52%
    18:00 +13°C° 0 mm 1 mps 756 mmHg 55%
    19:00 +12°C° 0 mm 1 mps 756 mmHg 59%
    20:00 +9°C° 0 mm 2 mps 756 mmHg 63%
    21:00 +8°C° 0 mm 3 mps 756 mmHg 67%
    22:00 +8°C° 0 mm 3 mps 756 mmHg 67%
    23:00 +7°C° 0 mm 3 mps 756 mmHg 68%

    Tomorrow, 26 May, Sunday

    Time Temperature Precipitation Wind Pressure Humidity
    00:00 +7°C° 0 mm 3 mps 756 mmHg 69%
    01:00 +5°C° 0 mm 4 mps 756 mmHg 69%
    02:00 +5°C° 0 mm 4 mps 756 mmHg 70%
    03:00 +5°C° 0 mm 4 mps 756 mmHg 71%
    04:00 +6°C° 0 mm 4 mps 756 mmHg 70%
    05:00 +7°C° 0 mm 5 mps 755 mmHg 70%
    06:00 +8°C° 0 mm 5 mps 755 mmHg 69%
    07:00 +9°C° 0 mm 6 mps 755 mmHg 67%
    08:00 +11°C° 0 mm 6 mps 755 mmHg 64%
    09:00 +13°C° 0 mm 6 mps 755 mmHg 61%
    10:00 +14°C° 0 mm 6 mps 754 mmHg 59%
    11:00 +15°C° 0 mm 6 mps 754 mmHg 57%
    12:00 +16°C° 0 mm 6 mps 753 mmHg 54%
    13:00 +17°C° 0 mm 6 mps 753 mmHg 54%
    14:00 +19°C° 0 mm 6 mps 752 mmHg 54%
    15:00 +19°C° 0 mm 6 mps 752 mmHg 55%
    16:00 +17°C° 0 mm 5 mps 752 mmHg 61%
    17:00 +16°C° 0 mm 5 mps 751 mmHg 67%
    18:00 +15°C° 0 mm 5 mps 751 mmHg 73%
    19:00 +15°C° 0 mm 5 mps 751 mmHg 73%
    20:00 +14°C° 0 mm 5 mps 750 mmHg 74%
    21:00 +14°C° 0 mm 5 mps 750 mmHg 75%
    22:00 +14°C° 0.6 mm 5 mps 749 mmHg 78%
    23:00 +13°C° 0.6 mm 5 mps 749 mmHg 82%

    Day after tomorrow, 27 May, Monday

    Time Temperature Precipitation Wind Pressure Humidity
    00:00 +13°C° 0.6 mm 5 mps 749 mmHg 86%
    01:00 +13°C° 0 mm 5 mps 748 mmHg 88%
    02:00 +13°C° 0 mm 5 mps 748 mmHg 90%
    03:00 +13°C° 0 mm 5 mps 748 mmHg 92%
    04:00 +14°C° 0 mm 6 mps 748 mmHg 91%
    05:00 +14°C° 0 mm 6 mps 748 mmHg 90%
    06:00 +15°C° 0 mm 6 mps 748 mmHg 89%
    07:00 +16°C° 0.2 mm 7 mps 748 mmHg 86%
    08:00 +17°C° 0.2 mm 8 mps 748 mmHg 83%
    09:00 +18°C° 0.2 mm 8 mps 748 mmHg 80%
    10:00 +16°C° 0.3 mm 8 mps 748 mmHg 84%
    11:00 +15°C° 0.3 mm 7 mps 748 mmHg 89%
    12:00 +14°C° 0.3 mm 7 mps 748 mmHg 93%
    13:00 +16°C° 0.1 mm 7 mps 748 mmHg 89%
    14:00 +17°C° 0.1 mm 7 mps 748 mmHg 84%
    15:00 +18°C° 0.1 mm 7 mps 749 mmHg 80%
    16:00 +19°C° 0.3 mm 6 mps 749 mmHg 81%
    17:00 +19°C° 0.3 mm 5 mps 749 mmHg 82%
    18:00 +19°C° 0.3 mm 4 mps 749 mmHg 83%
    19:00 +18°C° 0.1 mm 3 mps 750 mmHg 85%
    20:00 +17°C° 0.1 mm 3 mps 750 mmHg 87%
    21:00 +14°C° 0.1 mm 3 mps 751 mmHg 88%
    22:00 +14°C° 0 mm 3 mps 751 mmHg 89%
    23:00 +13°C° 0 mm 3 mps 752 mmHg 89%

    28 May, Tuesday

    Time Temperature Precipitation Wind Pressure Humidity
    00:00 +13°C° 0 mm 3 mps 752 mmHg 89%
    01:00 +12°C° 0 mm 3 mps 752 mmHg 90%
    02:00 +12°C° 0 mm 3 mps 753 mmHg 90%
    03:00 +11°C° 0 mm 3 mps 753 mmHg 90%
    04:00 +13°C° 0 mm 2 mps 754 mmHg 88%
    05:00 +13°C° 0 mm 2 mps 754 mmHg 85%
    06:00 +14°C° 0 mm 2 mps 755 mmHg 82%
    07:00 +16°C° 0 mm 2 mps 755 mmHg 76%
    08:00 +17°C° 0 mm 3 mps 755 mmHg 70%
    09:00 +18°C° 0 mm 3 mps 755 mmHg 65%
    10:00 +19°C° 0 mm 3 mps 755 mmHg 63%
    11:00 +20°C° 0 mm 4 mps 755 mmHg 62%
    12:00 +21°C° 0 mm 4 mps 755 mmHg 61%
    13:00 +21°C° 0 mm 4 mps 755 mmHg 61%
    14:00 +22°C° 0 mm 4 mps 755 mmHg 61%
    15:00 +22°C° 0 mm 4 mps 755 mmHg 61%
    16:00 +22°C° 0 mm 4 mps 755 mmHg 66%
    17:00 +21°C° 0 mm 3 mps 755 mmHg 70%
    18:00 +21°C° 0 mm 3 mps 755 mmHg 74%
    19:00 +20°C° 0 mm 3 mps 756 mmHg 78%
    20:00 +19°C° 0 mm 3 mps 756 mmHg 82%
    21:00 +17°C° 0 mm 2 mps 756 mmHg 85%
    22:00 +17°C° 0 mm 2 mps 756 mmHg 87%
    23:00 +16°C° 0 mm 2 mps 756 mmHg 89%

    29 May, Wednesday

    Time Temperature Precipitation Wind Pressure Humidity
    00:00 +16°C° 0 mm 2 mps 757 mmHg 91%
    01:00 +16°C° 0 mm 2 mps 757 mmHg 92%
    02:00 +15°C° 0 mm 2 mps 757 mmHg 93%
    03:00 +15°C° 0 mm 2 mps 757 mmHg 93%
    04:00 +16°C° 0 mm 2 mps 757 mmHg 91%
    05:00 +17°C° 0 mm 2 mps 757 mmHg 90%
    06:00 +17°C° 0 mm 2 mps 758 mmHg 88%
    07:00 +19°C° 0 mm 2 mps 758 mmHg 84%
    08:00 +20°C° 0 mm 2 mps 758 mmHg 80%
    09:00 +21°C° 0 mm 2 mps 758 mmHg 76%
    10:00 +22°C° 0 mm 3 mps 758 mmHg 73%
    11:00 +24°C° 0 mm 3 mps 758 mmHg 70%
    12:00 +25°C° 0 mm 4 mps 757 mmHg 67%
    13:00 +25°C° 0 mm 4 mps 757 mmHg 66%
    14:00 +26°C° 0 mm 4 mps 757 mmHg 66%
    15:00 +26°C° 0 mm 4 mps 757 mmHg 65%
    16:00 +26°C° 0 mm 3 mps 757 mmHg 69%
    17:00 +25°C° 0 mm 3 mps 757 mmHg 72%
    18:00 +25°C° 0 mm 2 mps 757 mmHg 76%
    19:00 +23°C° 0 mm 2 mps 757 mmHg 79%
    20:00 +21°C° 0 mm 2 mps 757 mmHg 82%
    21:00 +20°C° 0 mm 2 mps 758 mmHg 85%
    22:00 +20°C° 0 mm 2 mps 758 mmHg 87%
    23:00 +19°C° 0 mm 2 mps 758 mmHg 89%

    30 May, Thursday

    Time Temperature Precipitation Wind Pressure Humidity
    00:00 +18°C° 0 mm 2 mps 758 mmHg 91%
    01:00 +18°C° 0 mm 2 mps 758 mmHg 92%
    02:00 +18°C° 0 mm 2 mps 758 mmHg 92%
    03:00 +18°C° 0 mm 2 mps 758 mmHg 93%
    04:00 +18°C° 0 mm 2 mps 758 mmHg 91%
    05:00 +19°C° 0 mm 2 mps 759 mmHg 88%
    06:00 +20°C° 0 mm 2 mps 759 mmHg 86%
    07:00 +21°C° 0 mm 2 mps 759 mmHg 82%
    08:00 +23°C° 0 mm 2 mps 759 mmHg 78%
    09:00 +25°C° 0 mm 2 mps 759 mmHg 73%
    10:00 +26°C° 0 mm 2 mps 758 mmHg 69%
    11:00 +27°C° 0 mm 2 mps 758 mmHg 64%
    12:00 +27°C° 0 mm 2 mps 758 mmHg 59%
    13:00 +28°C° 0 mm 2 mps 758 mmHg 59%
    14:00 +28°C° 0 mm 2 mps 758 mmHg 58%
    15:00 +28°C° 0 mm 2 mps 758 mmHg 57%
    16:00 +28°C° 0 mm 2 mps 758 mmHg 60%
    17:00 +27°C° 0 mm 1 mps 758 mmHg 64%
    18:00 +27°C° 0 mm 1 mps 758 mmHg 67%
    19:00 +25°C° 0 mm 1 mps 758 mmHg 69%
    20:00 +24°C° 0 mm 2 mps 758 mmHg 71%
    21:00 +23°C° 0 mm 2 mps 758 mmHg 73%
    22:00 +21°C° 0 mm 2 mps 758 mmHg 75%
    23:00 +21°C° 0 mm 2 mps 758 mmHg 77%
    Show more